Time,TemperatureF,DewpointF,PressureIn,WindDirection,WindDirectionDegrees,WindSpeedMPH,WindSpeedGustMPH,Humidity,HourlyPrecipIn,Conditions,Clouds,dailyrainin,SolarRadiationWatts/m^2,SoftwareType,DateUTC
2013-03-12 00:03:00,35.0,30.0,-100.00,NNW,343,0.0,5.0,81,0.00,,,0.00,0.000000,,2013-03-12 04:03:00,
2013-03-12 00:32:00,35.0,31.0,-100.00,NE,55,2.0,4.0,85,0.00,,,0.00,0.000000,,2013-03-12 04:32:00,
2013-03-12 00:43:00,35.0,31.0,-100.00,NE,55,2.0,4.0,85,0.00,,,0.00,0.000000,,2013-03-12 04:43:00,
2013-03-12 00:52:00,35.0,31.0,-100.00,NE,55,2.0,4.0,85,0.00,,,0.00,0.000000,,2013-03-12 04:52:00,
2013-03-12 01:02:00,35.0,31.0,-100.00,NE,55,2.0,4.0,85,0.00,,,0.00,0.000000,,2013-03-12 05:02:00,
2013-03-12 01:32:00,34.0,31.0,-100.00,NNW,343,1.0,8.0,88,0.00,,,0.00,0.000000,,2013-03-12 05:32:00,
2013-03-12 01:42:00,34.0,31.0,-100.00,NNW,343,1.0,8.0,88,0.00,,,0.00,0.000000,,2013-03-12 05:42:00,
2013-03-12 01:52:00,34.0,31.0,-100.00,NNW,343,1.0,8.0,88,0.00,,,0.00,0.000000,,2013-03-12 05:52:00,
2013-03-12 02:02:00,34.0,31.0,-100.00,NNW,343,1.0,8.0,88,0.00,,,0.00,0.000000,,2013-03-12 06:02:00,
2013-03-12 02:32:00,35.0,32.0,-100.00,WSW,239,1.0,7.0,88,0.00,,,0.00,0.000000,,2013-03-12 06:32:00,
2013-03-12 02:42:00,35.0,32.0,-100.00,WSW,239,1.0,7.0,88,0.00,,,0.00,0.000000,,2013-03-12 06:42:00,
2013-03-12 02:52:00,35.0,32.0,-100.00,WSW,239,1.0,7.0,88,0.00,,,0.00,0.000000,,2013-03-12 06:52:00,
2013-03-12 03:02:00,35.0,32.0,-100.00,WSW,239,1.0,7.0,88,0.00,,,0.00,0.000000,,2013-03-12 07:02:00,
2013-03-12 03:32:00,33.0,31.0,-100.00,NNW,345,1.0,3.0,92,0.00,,,0.00,0.000000,,2013-03-12 07:32:00,
2013-03-12 03:42:00,33.0,31.0,-100.00,NNW,345,1.0,3.0,92,0.00,,,0.00,0.000000,,2013-03-12 07:42:00,
2013-03-12 03:52:00,33.0,31.0,-100.00,NNW,345,1.0,3.0,92,0.00,,,0.00,0.000000,,2013-03-12 07:52:00,
2013-03-12 04:02:00,33.0,31.0,-100.00,NNW,345,1.0,3.0,92,0.00,,,0.00,0.000000,,2013-03-12 08:02:00,
2013-03-12 04:33:00,33.0,31.0,-100.00,ENE,57,1.0,2.0,93,0.00,,,0.00,0.000000,,2013-03-12 08:33:00,
2013-03-12 04:42:00,33.0,31.0,-100.00,ENE,57,1.0,2.0,93,0.00,,,0.00,0.000000,,2013-03-12 08:42:00,
2013-03-12 04:52:00,33.0,31.0,-100.00,ENE,57,1.0,2.0,93,0.00,,,0.00,0.000000,,2013-03-12 08:52:00,
2013-03-12 05:03:00,33.0,31.0,-100.00,ENE,57,1.0,2.0,93,0.00,,,0.00,0.000000,,2013-03-12 09:03:00,
2013-03-12 05:33:00,33.0,31.0,-100.00,NNW,328,1.0,2.0,94,0.00,,,0.00,0.000000,,2013-03-12 09:33:00,
2013-03-12 05:43:00,33.0,31.0,-100.00,NNW,328,1.0,2.0,94,0.00,,,0.00,0.000000,,2013-03-12 09:43:00,
2013-03-12 05:52:00,33.0,31.0,-100.00,NNW,328,1.0,2.0,94,0.00,,,0.00,0.000000,,2013-03-12 09:52:00,
2013-03-12 06:02:00,33.0,31.0,-100.00,NNW,328,1.0,2.0,94,0.00,,,0.00,0.000000,,2013-03-12 10:02:00,
2013-03-12 06:33:00,34.0,32.0,-100.00,West,270,1.0,3.0,92,0.00,,,0.00,0.000000,,2013-03-12 10:33:00,
2013-03-12 06:42:00,34.0,32.0,-100.00,West,270,1.0,3.0,92,0.00,,,0.00,0.000000,,2013-03-12 10:42:00,
2013-03-12 06:53:00,34.0,32.0,-100.00,West,270,1.0,3.0,92,0.00,,,0.00,0.000000,,2013-03-12 10:53:00,
2013-03-12 07:02:00,34.0,32.0,-100.00,West,270,1.0,3.0,92,0.00,,,0.00,0.000000,,2013-03-12 11:02:00,
2013-03-12 07:33:00,34.0,32.0,-100.00,SW,219,1.0,2.0,92,0.00,,,0.00,0.000000,,2013-03-12 11:33:00,
2013-03-12 07:42:00,34.0,32.0,-100.00,SW,219,1.0,2.0,92,0.00,,,0.00,0.000000,,2013-03-12 11:42:00,
2013-03-12 07:52:00,34.0,32.0,-100.00,SW,219,1.0,2.0,92,0.00,,,0.00,0.000000,,2013-03-12 11:52:00,
2013-03-12 08:03:00,34.0,32.0,-100.00,SW,219,1.0,2.0,92,0.00,,,0.00,0.000000,,2013-03-12 12:03:00,
2013-03-12 08:32:00,34.0,32.0,-100.00,East,84,1.0,2.0,94,0.00,,,0.00,4.000000,,2013-03-12 12:32:00,
2013-03-12 08:42:00,34.0,32.0,-100.00,East,84,1.0,2.0,94,0.00,,,0.00,4.000000,,2013-03-12 12:42:00,
2013-03-12 08:52:00,34.0,32.0,-100.00,East,84,1.0,2.0,94,0.00,,,0.00,4.000000,,2013-03-12 12:52:00,
2013-03-12 09:02:00,34.0,32.0,-100.00,East,84,1.0,2.0,94,0.00,,,0.00,4.000000,,2013-03-12 13:02:00,
2013-03-12 09:33:00,36.0,35.0,-100.00,West,262,1.0,2.0,97,0.01,,,0.01,23.000000,,2013-03-12 13:33:00,
2013-03-12 09:43:00,36.0,35.0,-100.00,West,262,1.0,2.0,97,0.01,,,0.01,23.000000,,2013-03-12 13:43:00,
2013-03-12 09:52:00,36.0,35.0,-100.00,West,262,1.0,2.0,97,0.01,,,0.01,23.000000,,2013-03-12 13:52:00,
2013-03-12 10:02:00,36.0,35.0,-100.00,West,262,1.0,2.0,97,0.01,,,0.01,23.000000,,2013-03-12 14:02:00,
2013-03-12 10:33:00,38.0,37.0,-100.00,SW,217,0.0,2.0,97,0.04,,,0.05,51.000000,,2013-03-12 14:33:00,
2013-03-12 10:43:00,38.0,37.0,-100.00,SW,217,0.0,2.0,97,0.04,,,0.05,51.000000,,2013-03-12 14:43:00,
2013-03-12 10:53:00,38.0,37.0,-100.00,SW,217,0.0,2.0,97,0.04,,,0.05,51.000000,,2013-03-12 14:53:00,
2013-03-12 11:03:00,38.0,37.0,-100.00,SW,217,0.0,2.0,97,0.04,,,0.05,51.000000,,2013-03-12 15:03:00,
2013-03-12 11:32:00,38.0,37.0,-100.00,West,281,0.0,2.0,97,0.14,,,0.19,39.000000,,2013-03-12 15:32:00,
2013-03-12 11:43:00,38.0,37.0,-100.00,West,281,0.0,2.0,97,0.14,,,0.19,39.000000,,2013-03-12 15:43:00,
2013-03-12 11:53:00,38.0,37.0,-100.00,West,281,0.0,2.0,97,0.14,,,0.19,39.000000,,2013-03-12 15:53:00,
2013-03-12 12:03:00,38.0,37.0,-100.00,West,281,0.0,2.0,97,0.14,,,0.19,39.000000,,2013-03-12 16:03:00,
2013-03-12 12:33:00,39.0,38.0,-100.00,SSW,213,1.0,2.0,98,0.06,,,0.25,36.000000,,2013-03-12 16:33:00,
2013-03-12 12:43:00,39.0,38.0,-100.00,SSW,213,1.0,2.0,98,0.06,,,0.25,36.000000,,2013-03-12 16:43:00,
2013-03-12 12:53:00,39.0,38.0,-100.00,SSW,213,1.0,2.0,98,0.06,,,0.25,36.000000,,2013-03-12 16:53:00,
2013-03-12 13:03:00,39.0,38.0,-100.00,SSW,213,1.0,2.0,98,0.06,,,0.25,36.000000,,2013-03-12 17:03:00,
2013-03-12 13:34:00,39.0,38.0,-100.00,SW,236,0.0,2.0,97,0.05,,,0.30,42.000000,,2013-03-12 17:34:00,
2013-03-12 13:44:00,39.0,38.0,-100.00,SW,236,0.0,2.0,97,0.05,,,0.30,42.000000,,2013-03-12 17:44:00,
2013-03-12 13:54:00,39.0,38.0,-100.00,SW,236,0.0,2.0,97,0.05,,,0.30,42.000000,,2013-03-12 17:54:00,
2013-03-12 14:03:00,39.0,38.0,-100.00,SW,236,0.0,2.0,97,0.05,,,0.30,42.000000,,2013-03-12 18:03:00,
2013-03-12 14:33:00,39.0,38.0,-100.00,SE,145,1.0,1.0,98,0.05,,,0.35,36.000000,,2013-03-12 18:33:00,
2013-03-12 14:43:00,39.0,38.0,-100.00,SE,145,1.0,1.0,98,0.05,,,0.35,36.000000,,2013-03-12 18:43:00,
2013-03-12 14:53:00,39.0,38.0,-100.00,SE,145,1.0,1.0,98,0.05,,,0.35,36.000000,,2013-03-12 18:53:00,
2013-03-12 15:04:00,39.0,38.0,-100.00,SE,145,1.0,1.0,98,0.05,,,0.35,36.000000,,2013-03-12 19:04:00,
2013-03-12 15:33:00,39.0,38.0,-100.00,SW,235,1.0,1.0,98,0.15,,,0.50,33.000000,,2013-03-12 19:33:00,
2013-03-12 15:44:00,39.0,38.0,-100.00,SW,235,1.0,1.0,98,0.15,,,0.50,33.000000,,2013-03-12 19:44:00,
2013-03-12 15:53:00,39.0,38.0,-100.00,SW,235,1.0,1.0,98,0.15,,,0.50,33.000000,,2013-03-12 19:53:00,
2013-03-12 16:02:00,39.0,38.0,-100.00,SW,235,1.0,1.0,98,0.15,,,0.50,33.000000,,2013-03-12 20:02:00,
2013-03-12 16:33:00,39.0,39.0,-100.00,West,262,1.0,2.0,99,0.14,,,0.64,30.000000,,2013-03-12 20:33:00,
2013-03-12 16:42:00,39.0,39.0,-100.00,West,262,1.0,2.0,99,0.14,,,0.64,30.000000,,2013-03-12 20:42:00,
2013-03-12 16:53:00,39.0,39.0,-100.00,West,262,1.0,2.0,99,0.14,,,0.64,30.000000,,2013-03-12 20:53:00,
2013-03-12 17:03:00,39.0,39.0,-100.00,West,262,1.0,2.0,99,0.14,,,0.64,30.000000,,2013-03-12 21:03:00,
2013-03-12 17:33:00,38.0,38.0,-100.00,West,274,1.0,3.0,99,0.19,,,0.83,17.000000,,2013-03-12 21:33:00,
2013-03-12 17:43:00,38.0,38.0,-100.00,West,274,1.0,3.0,99,0.19,,,0.83,17.000000,,2013-03-12 21:43:00,
2013-03-12 17:53:00,38.0,38.0,-100.00,West,274,1.0,3.0,99,0.19,,,0.83,17.000000,,2013-03-12 21:53:00,
2013-03-12 18:03:00,38.0,38.0,-100.00,West,274,1.0,3.0,99,0.19,,,0.83,17.000000,,2013-03-12 22:03:00,
2013-03-12 18:33:00,38.0,38.0,-100.00,WNW,295,1.0,2.0,99,0.17,,,1.00,7.000000,,2013-03-12 22:33:00,
2013-03-12 18:43:00,38.0,38.0,-100.00,WNW,295,1.0,2.0,99,0.17,,,1.00,7.000000,,2013-03-12 22:43:00,
2013-03-12 18:54:00,38.0,38.0,-100.00,WNW,295,1.0,2.0,99,0.17,,,1.00,7.000000,,2013-03-12 22:54:00,
2013-03-12 19:03:00,38.0,38.0,-100.00,WNW,295,1.0,2.0,99,0.17,,,1.00,7.000000,,2013-03-12 23:03:00,
2013-03-12 19:34:00,37.0,37.0,-100.00,West,279,1.0,2.0,100,0.18,,,1.18,0.000000,,2013-03-12 23:34:00,
2013-03-12 19:43:00,37.0,37.0,-100.00,West,279,1.0,2.0,100,0.18,,,1.18,0.000000,,2013-03-12 23:43:00,
2013-03-12 19:53:00,37.0,37.0,-100.00,West,279,1.0,2.0,100,0.18,,,1.18,0.000000,,2013-03-12 23:53:00,
2013-03-12 20:03:00,37.0,37.0,-100.00,West,279,1.0,2.0,100,0.18,,,1.18,0.000000,,2013-03-13 00:03:00,
2013-03-12 20:33:00,38.0,38.0,-100.00,NNE,18,1.0,2.0,100,0.30,,,1.48,0.000000,,2013-03-13 00:33:00,
2013-03-12 20:42:00,38.0,38.0,-100.00,NNE,18,1.0,2.0,100,0.30,,,1.48,0.000000,,2013-03-13 00:42:00,
2013-03-12 20:53:00,38.0,38.0,-100.00,NNE,18,1.0,2.0,100,0.30,,,1.48,0.000000,,2013-03-13 00:53:00,
2013-03-12 21:03:00,38.0,38.0,-100.00,NNE,18,1.0,2.0,100,0.30,,,1.48,0.000000,,2013-03-13 01:03:00,
2013-03-12 21:33:00,37.0,37.0,-100.00,NNW,332,1.0,3.0,100,0.21,,,1.69,0.000000,,2013-03-13 01:33:00,
2013-03-12 21:43:00,37.0,37.0,-100.00,NNW,332,1.0,3.0,100,0.21,,,1.69,0.000000,,2013-03-13 01:43:00,
2013-03-12 21:53:00,37.0,37.0,-100.00,NNW,332,1.0,3.0,100,0.21,,,1.69,0.000000,,2013-03-13 01:53:00,
2013-03-12 22:03:00,37.0,37.0,-100.00,NNW,332,1.0,3.0,100,0.21,,,1.69,0.000000,,2013-03-13 02:03:00,
2013-03-12 22:33:00,38.0,38.0,-100.00,NNW,333,1.0,3.0,100,0.18,,,1.87,0.000000,,2013-03-13 02:33:00,
2013-03-12 22:43:00,38.0,38.0,-100.00,NNW,333,1.0,3.0,100,0.18,,,1.87,0.000000,,2013-03-13 02:43:00,
2013-03-12 22:53:00,38.0,38.0,-100.00,NNW,333,1.0,3.0,100,0.18,,,1.87,0.000000,,2013-03-13 02:53:00,
2013-03-12 23:02:00,38.0,38.0,-100.00,NNW,333,1.0,3.0,100,0.18,,,1.87,0.000000,,2013-03-13 03:02:00,
2013-03-12 23:33:00,37.0,37.0,-100.00,West,277,1.0,3.0,100,0.08,,,1.95,0.000000,,2013-03-13 03:33:00,
2013-03-12 23:42:00,37.0,37.0,-100.00,West,277,1.0,3.0,100,0.08,,,1.95,0.000000,,2013-03-13 03:42:00,
2013-03-12 23:53:00,37.0,37.0,-100.00,West,277,1.0,3.0,100,0.08,,,1.95,0.000000,,2013-03-13 03:53:00,